Location: Stara Lesna
(49.1528°N, 20.2911°E)
Time: 10:00:16
(UTC+02:00)

Cosmos 1536 - Pass Details

Date: 13 July 2020
Orbit: 539 x 559 km, 82.5° (Epoch: 05 August)

Event Time Altitude Azimuth Distance (km) Brightness Sun altitude
Exits shadow 02:31:30 11° 150° (SSE) 1,766 5.1 -15.2°
Maximum altitude 02:34:50 30° 91° (E) 1,019 4.4 -14.9°
Drops below altitude 10° 02:38:24 10° 29° (NNE) 1,850 6.9 -14.7°
Sets 02:40:45 0° 19° (NNE) 2,747 8.2 -14.5°
